IZ0DPP-3 Weather Reports


time (UTC)temp
F
wind
direction
speed
knots
gust
knots
rain 1hr
in
rain 24hr
in
rain mn
in
humidity
%
barometer
mb
20260504000904 51 43 0.9 2.6 0.00 0.00 0.00 92 1017.5
20260504000004 51 43 0.9 2.6 0.00 0.00 0.00 92 1017.8
20260503235425 52 43 0.9 2.6 0.00 0.00 0.00 92 1017.5
20260503234505 52 43 0.0 1.7 0.00 0.00 0.00 92 1017.7
20260503233604 52 51 0.9 2.6 0.00 0.00 0.00 92 1017.6
20260503232704 52 52 0.9 1.7 0.00 0.00 0.00 92 1017.8
20260503231806 52 52 0.9 2.6 0.00 0.00 0.00 92 1018.0
20260503230904 52 52 0.0 1.7 0.00 0.00 0.00 92 1017.8
20260503230007 52 52 0.0 2.6 0.00 0.00 0.00 91 1018.0
20260503225404 53 52 0.0 2.6 0.00 0.00 0.00 91 1017.9
20260503224504 53 52 0.0 2.6 0.00 0.00 0.00 91 1018.0
20260503223604 52 52 0.0 1.7 0.00 0.00 0.00 92 1018.1
20260503222705 53 52 0.0 1.7 0.00 0.00 0.00 91 1017.8
20260503221805 53 52 0.0 0.9 0.00 0.00 0.00 90 1018.0
20260503220904 53 52 0.0 0.9 0.00 0.00 0.00 90 1017.7
20260503220026 53 52 0.0 0.9 0.00 0.00 0.00 90 1017.7
20260503215404 54 52 0.0 0.9 0.00 0.00 0.00 88 1017.7
20260503214504 55 52 0.0 0.9 0.00 0.00 0.00 88 1018.0
20260503213604 55 52 0.0 1.7 0.00 0.00 0.00 87 1017.9
20260503212704 56 53 0.0 0.9 0.00 0.00 0.00 85 1017.7
20260503211804 58 0 0.0 0.0 0.00 0.00 0.00 81 1017.9
20260503210904 59 0 0.0 0.0 0.00 0.00 0.00 78 1017.5
20260503210005 60 52 0.0 0.9 0.00 0.00 0.00 77 1017.4
20260503205404 60 118 0.0 1.7 0.00 0.00 0.00 77 1017.2
20260503204504 60 130 0.0 1.7 0.00 0.00 0.00 77 1017.3
20260503203604 61 130 0.0 1.7 0.00 0.00 0.00 77 1017.3
20260503202704 61 105 0.0 2.6 0.00 0.00 0.00 77 1017.5
20260503201819 61 96 0.9 3.5 0.00 0.00 0.00 76 1017.1
20260503200904 60 96 0.9 2.6 0.00 0.00 0.00 79 1017.0
20260503200004 58 96 0.0 0.9 0.00 0.00 0.00 84 1016.9
20260503195425 58 96 0.0 1.7 0.00 0.00 0.00 83 1016.9
20260503194504 58 96 0.0 1.7 0.00 0.00 0.00 84 1017.0
20260503193604 60 96 0.0 1.7 0.00 0.00 0.00 79 1016.5
20260503192704 61 96 0.0 1.7 0.00 0.00 0.00 79 1016.6
20260503191804 61 96 0.0 0.9 0.00 0.00 0.00 78 1016.4
20260503190904 61 96 0.0 1.7 0.00 0.00 0.00 78 1016.5
20260503190004 61 96 0.0 0.9 0.00 0.00 0.00 78 1016.2
20260503185404 61 96 0.0 0.9 0.00 0.00 0.00 79 1016.3
20260503184504 61 96 0.0 0.9 0.00 0.00 0.00 78 1015.8
20260503183605 62 96 0.0 0.9 0.00 0.00 0.00 76 1015.8
20260503182746 63 96 0.0 1.7 0.00 0.00 0.00 76 1015.8
20260503181804 64 96 0.0 1.7 0.00 0.00 0.00 74 1015.7
20260503180904 64 96 0.0 0.9 0.00 0.00 0.00 71 1015.7
20260503180004 66 0 0.0 0.0 0.00 0.00 0.00 67 1015.6
20260503175406 67 98 0.0 2.6 0.00 0.00 0.00 64 1015.6
20260503174504 68 135 0.0 2.6 0.00 0.00 0.00 64 1015.5
20260503173604 69 228 0.0 1.7 0.00 0.00 0.00 63 1015.5
20260503172705 71 0 0.0 0.0 0.00 0.00 0.00 62 1015.2
20260503171804 72 212 0.0 0.9 0.00 0.00 0.00 59 1015.0
20260503170911 72 212 0.0 0.9 0.00 0.00 0.00 58 1015.2
20260503150904 74 235 3.5 8.7 0.00 0.00 0.00 48 1015.6
20260503130925 78 271 0.9 2.6 0.00 0.00 0.00 40 1016.4
20260503080903 64 134 0.0 2.6 0.00 0.00 0.00 57 1019.3
20260503072703 61 133 0.0 2.6 0.00 0.00 0.00 61 1019.5
20260503071803 60 133 0.0 1.7 0.00 0.00 0.00 63 1019.6
20260503070904 59 133 0.9 2.6 0.00 0.00 0.00 63 1019.7
20260503054504 50 35 0.0 1.7 0.00 0.00 0.00 83 1020.0
20260503053603 48 35 0.0 1.7 0.00 0.00 0.00 87 1020.0
20260503052703 47 35 0.0 0.9 0.00 0.00 0.00 89 1019.9
20260503051803 46 35 0.0 0.9 0.00 0.00 0.00 90 1019.8
20260503050903 46 0 0.0 0.0 0.00 0.00 0.00 91 1019.8
20260503050003 45 0 0.0 0.0 0.00 0.00 0.00 93 1019.8
20260503045424 44 0 0.0 0.0 0.00 0.00 0.00 92 1019.7
20260503044505 44 35 0.0 1.7 0.00 0.00 0.00 93 1019.8
20260503043610 44 35 0.0 1.7 0.00 0.00 0.00 93 1019.6
20260503042703 44 35 0.0 2.6 0.00 0.00 0.00 93 1019.8
20260503041803 44 22 0.9 2.6 0.00 0.00 0.00 93 1019.6
20260503040903 44 15 0.9 1.7 0.00 0.00 0.00 93 1019.6
20260503040003 44 15 0.0 1.7 0.00 0.00 0.00 93 1019.7
20260503035403 44 21 0.9 2.6 0.00 0.00 0.00 94 1019.6
20260503034503 44 26 0.9 3.5 0.00 0.00 0.00 94 1019.5
20260503033603 44 31 0.0 1.7 0.00 0.00 0.00 94 1019.2
20260503032703 44 31 0.0 1.7 0.00 0.00 0.00 93 1019.4
20260503031803 44 31 0.9 2.6 0.00 0.00 0.00 93 1019.3
20260503030903 44 30 0.9 2.6 0.00 0.00 0.00 94 1019.3
20260503030003 44 29 0.0 0.9 0.00 0.00 0.00 94 1019.1
20260503025404 44 29 0.0 1.7 0.00 0.00 0.00 94 1019.2
20260503024503 44 29 0.0 0.9 0.00 0.00 0.00 93 1019.1
20260503023603 44 29 0.0 1.7 0.00 0.00 0.00 93 1019.3
20260503022724 44 29 0.0 0.9 0.00 0.00 0.00 92 1019.2
20260503021803 45 29 0.0 1.7 0.00 0.00 0.00 92 1019.5
20260503020924 45 29 0.0 1.7 0.00 0.00 0.00 92 1019.3
20260503020003 45 29 0.0 0.9 0.00 0.00 0.00 92 1019.3
20260503015403 45 29 0.0 0.9 0.00 0.00 0.00 91 1019.4
20260503014503 46 29 0.0 2.6 0.00 0.00 0.00 91 1019.4
20260503013604 46 29 0.0 2.6 0.00 0.00 0.00 91 1019.4
20260503012703 46 29 0.0 2.6 0.00 0.00 0.00 91 1019.7
20260503011803 46 29 0.0 1.7 0.00 0.00 0.00 90 1019.4
20260503010903 46 29 0.0 0.9 0.00 0.00 0.00 90 1019.5
20260503010003 47 29 0.0 2.6 0.00 0.00 0.00 89 1019.7
20260503005424 47 29 0.0 0.9 0.00 0.00 0.00 88 1019.6
20260503004503 47 29 0.0 2.6 0.00 0.00 0.00 88 1019.6
20260503003604 47 29 0.0 2.6 0.00 0.00 0.00 87 1019.8
20260503002724 48 28 0.9 3.5 0.00 0.00 0.00 86 1019.7
20260503001806 47 23 0.0 0.9 0.00 0.00 0.00 87 1020.0